This is the latest recevied weather packets stored in our database for station/object APPOWX. If no packets are shown the sender has not sent any weather packets the latest 10 day(s).
| Time | Temp. | Humidity | Pressure | Rain* | Wind** | Luminosity | Snow |
|---|---|---|---|---|---|---|---|
| 1777135398 | 24.44° C | 59% | 1012 hPa | 0 mm | - | - | - |
| 1777135338 | 24.44° C | 58% | 1012 hPa | 0 mm | - | - | - |
| 1777135277 | 25.56° C | 58% | 1011.9 hPa | 0 mm | - | - | - |
| 1777135218 | 25.56° C | 56% | 1012 hPa | 0 mm | - | - | - |
| 1777135158 | 25.56° C | 60% | 1012 hPa | 0 mm | - | - | - |
| 1777135098 | 24.44° C | 59% | 1012 hPa | 0 mm | - | - | - |
| 1777135037 | 23.89° C | 61% | 1012.1 hPa | 0 mm | - | - | - |
| 1777134977 | 23.89° C | 60% | 1011.9 hPa | 0 mm | - | - | - |
| 1777134917 | 23.33° C | 63% | 1011.8 hPa | 0 mm | - | - | - |
| 1777134858 | 23.33° C | 62% | 1012.1 hPa | 0 mm | - | - | - |
| 1777134797 | 23.33° C | 61% | 1012 hPa | 0 mm | - | - | - |
| 1777134737 | 22.78° C | 61% | 1012 hPa | 0 mm | - | - | - |
| 1777134677 | 23.33° C | 62% | 1012.1 hPa | 0 mm | - | - | - |
| 1777134617 | 23.33° C | 62% | 1012.2 hPa | 0 mm | - | - | - |
| 1777134556 | 23.89° C | 60% | 1012 hPa | 0 mm | - | - | - |
| 1777134497 | 24.44° C | 59% | 1012.2 hPa | 0 mm | - | - | - |
| 1777134437 | 24.44° C | 59% | 1012.1 hPa | 0 mm | - | - | - |
| 1777134376 | 24.44° C | 59% | 1012 hPa | 0 mm | - | - | - |
| 1777134316 | 23.89° C | 60% | 1012.1 hPa | 0 mm | - | - | - |
| 1777134256 | 23.89° C | 59% | 1012.1 hPa | 0 mm | - | - | - |
| 1777134196 | 24.44° C | 61% | 1012 hPa | 0 mm | - | - | - |
| 1777134136 | 24.44° C | 58% | 1012 hPa | 0 mm | - | - | - |
| 1777134075 | 23.89° C | 58% | 1012.2 hPa | 0 mm | - | - | - |
| 1777134015 | 23.89° C | 59% | 1012.2 hPa | 0 mm | - | - | - |
| 1777133955 | 23.89° C | 60% | 1012.2 hPa | 0 mm | - | - | - |
* Rain latest hour (hover to see other rain measurements)
** Current wind speed in m/s (hover to see current wind gust speed)